Abbotsford, British Columbia

11:47 PM PDT on August 24, 2016 (GMT -0700)
Abbotsford

Weather History for CYXX - February, 2013

Change the Weather History Date:

Friday, February 22, 2013

  Actual Average Record
Temperature  
Mean Temperature 42 °F -  
Max Temperature 46 °F 51 °F 59 °F (2004)
Min Temperature 38 °F 34 °F 28 °F (2005)
Degree Days  
Heating Degree Days 23    
Moisture  
Dew Point 37 °F    
Average Humidity 84    
Maximum Humidity 100    
Minimum Humidity 66    
Precipitation  
Precipitation 0.39 in 0.20 in - ()
Sea Level Pressure  
Sea Level Pressure 29.77 in    
Wind  
Wind Speed 13 mph ()    
Max Wind Speed 28 mph    
Max Gust Speed 36 mph    
Visibility 11.0 miles    
Events Rain    
Averages and records for this station are not official NWS values.
T = Trace of Precipitation, MM = Missing Value Source: Averaged Metar Reports

Daily Weather History Graph

Daily Weather History Graph

Search for Another Location

Airport or City:

Trip Planner

Search our weather history database for the weather conditions in past years. The results will help you decide how hot, cold, wet, or windy it might be!

Date:

Astronomy

Feb. 22, 2013 Rise Set
Actual Time 7:04 AM PST 5:42 PM PST
Civil Twilight 6:32 AM PST 6:14 PM PST
Nautical Twilight 5:55 AM PST 6:51 PM PST
Astronomical Twilight 5:19 AM PST 7:27 PM PST
Moon 2:49 PM PST (2/22) 5:03 AM PST (2/22)
Length of Visible Light 11h 41m
Length of Day
10h 37m
Waxing Gibbous, 91% of the Moon is Illuminated
Feb 22
Waxing Gibbous
Feb 25
Full
Mar 4
Last Quarter
Mar 11
New
Mar 19
First Quarter

Hourly Weather History & Observations

Time (PST) Temp. Windchill Dew Point Humidity Pressure Visibility Wind Dir Wind Speed Gust Speed Precip Events Conditions
12:00 AM 41.0 °F 33.5 °F 37.4 °F 87% 30.00 in 10.0 mi South 13.8 mph - N/A   Overcast
12:20 AM 41.0 °F 34.3 °F 37.4 °F 87% 30.01 in 10.0 mi South 11.5 mph - N/A Rain Light Rain Showers
1:00 AM 41.0 °F 33.1 °F 37.4 °F 87% 30.01 in 10.0 mi SSW 15.0 mph - N/A Rain Light Rain Showers
2:00 AM 41.0 °F 34.7 °F 39.2 °F 93% 30.00 in 6.0 mi SW 10.4 mph - N/A Rain Light Rain
3:00 AM 39.2 °F 34.2 °F 39.2 °F 100% 29.97 in 3.0 mi SW 6.9 mph - N/A Rain Light Rain
4:00 AM 40 °F - 39 °F 94% 29.93 in 4 mi SSW 8.1 mph - - Rain Light Rain
4:00 AM 39.2 °F 33.6 °F 39.2 °F 100% 29.93 in 4.0 mi South 8.1 mph - N/A Rain Light Rain
5:00 AM 39.2 °F 33.0 °F 37.4 °F 93% 29.90 in 6.0 mi South 9.2 mph - N/A Rain Light Rain
6:00 AM 39.2 °F 31.2 °F 37.4 °F 93% 29.85 in 6.0 mi South 13.8 mph - N/A Rain Light Rain
6:56 AM 41.0 °F 32.5 °F 35.6 °F 81% 29.82 in 6.0 mi South 17.3 mph 23.0 mph N/A Rain Rain
7:00 AM 41.0 °F 32.5 °F 35.6 °F 81% 29.82 in 6.0 mi South 17.3 mph - N/A Rain Rain
8:00 AM 41.0 °F 35.8 °F 37.4 °F 87% 29.80 in 10.0 mi South 8.1 mph - N/A Rain Light Rain
9:00 AM 41.0 °F 35.2 °F 37.4 °F 87% 29.76 in 10.0 mi South 9.2 mph - N/A Rain Light Rain
10:00 AM 41 °F - 38 °F 85% 29.73 in 10 mi South 16.1 mph - - Rain Light Rain
10:00 AM 41.0 °F 33.1 °F 37.4 °F 87% 29.73 in 10.0 mi South 15.0 mph 21.9 mph N/A Rain Light Rain
11:00 AM 41.0 °F 32.8 °F 39.2 °F 93% 29.69 in 10.0 mi South 16.1 mph 24.2 mph N/A Rain Light Rain
11:31 AM 42.8 °F 34.5 °F 37.4 °F 81% 29.68 in 12.0 mi South 18.4 mph 24.2 mph N/A Rain Rain
12:00 PM 42.8 °F 34.5 °F 37.4 °F 81% 29.66 in 10.0 mi South 18.4 mph 24.2 mph N/A Rain Light Rain
1:00 PM 42.8 °F 34.0 °F 39.2 °F 87% 29.63 in 15.0 mi South 20.7 mph 27.6 mph N/A Rain Light Rain
1:09 PM 42.8 °F 33.5 °F 39.2 °F 87% 29.63 in 15.0 mi South 23.0 mph 32.2 mph N/A   Overcast
2:00 PM 42.8 °F 32.7 °F 39.2 °F 87% 29.64 in 15.0 mi South 27.6 mph 35.7 mph N/A   Overcast
3:00 PM 44.6 °F 35.5 °F 39.2 °F 81% 29.62 in 15.0 mi South 25.3 mph 35.7 mph N/A   Mostly Cloudy
3:15 PM 44.6 °F 36.1 °F 39.2 °F 81% 29.62 in 15.0 mi South 21.9 mph 29.9 mph N/A Rain Light Rain Showers
4:00 PM 45 °F - 40 °F 76% 29.63 in 10 mi South 21.9 mph - - Rain Light Rain Showers
4:00 PM 44.6 °F 35.9 °F 39.2 °F 81% 29.63 in 10.0 mi South 23.0 mph 29.9 mph N/A Rain Light Rain Showers
4:07 PM 46.4 °F 38.3 °F 39.2 °F 76% 29.63 in 15.0 mi South 23.0 mph 33.4 mph N/A   Mostly Cloudy
5:00 PM 44.6 °F 36.4 °F 33.8 °F 66% 29.65 in 20.0 mi SSW 20.7 mph 29.9 mph N/A   Mostly Cloudy
6:00 PM 42.8 °F 35.8 °F 32.0 °F 66% 29.67 in 15.0 mi SW 13.8 mph 20.7 mph N/A   Scattered Clouds
7:00 PM 41.0 °F 32.5 °F 32.0 °F 70% 29.70 in 10.0 mi SSW 17.3 mph - N/A   Scattered Clouds
8:00 PM 39.2 °F 30.8 °F 33.8 °F 81% 29.73 in 15.0 mi South 15.0 mph 23.0 mph N/A   Mostly Cloudy
9:00 PM 39.2 °F 31.2 °F 33.8 °F 81% 29.76 in 15.0 mi South 13.8 mph - N/A   Mostly Cloudy
10:00 PM 38 °F - 33 °F 77% 29.79 in 15 mi South 11.5 mph - -   Partly Cloudy
10:00 PM 39.2 °F 32.0 °F 33.8 °F 81% 29.78 in 15.0 mi South 11.5 mph - N/A   Mostly Cloudy
11:00 PM 39.2 °F 31.2 °F 33.8 °F 81% 29.81 in 15.0 mi South 13.8 mph - N/A   Mostly Cloudy